K5GHS-1 Weather Reports


Display with metric or nautical units.
time (UTC)temp
F
wind
direction
speed
MPH
gust
MPH
rain 1hr
in
rain 24hr
in
rain mn
in
humidity
%
barometer
mb
20260903184331 84 90 1.0 3.0 0.00 0.01 0.01 74 1012.0
20260903183826 84 96 1.0 3.0 0.00 0.01 0.01 74 1011.9
20260903183321 84 133 1.0 3.0 0.00 0.01 0.01 75 1012.1
20260903182820 85 130 3.0 6.0 0.00 0.01 0.01 74 1012.1
20260903182314 84 122 0.0 7.0 0.00 0.01 0.01 76 1012.0
20260903181814 84 106 3.0 7.0 0.00 0.01 0.01 76 1012.1
20260903181308 84 83 1.0 3.0 0.00 0.01 0.01 77 1012.1
20260903180803 83 92 3.0 6.0 0.00 0.01 0.01 78 1012.4
20260903180302 83 106 2.0 5.0 0.00 0.01 0.01 79 1012.5
20260903175802 83 135 4.0 10.0 0.00 0.01 0.01 79 1012.7
20260903175301 83 86 2.0 3.0 0.00 0.01 0.01 79 1012.5
20260903174755 82 72 1.0 5.0 0.00 0.01 0.01 81 1012.5
20260903174251 82 77 2.0 8.0 0.00 0.01 0.01 82 1012.6
20260903173745 82 57 1.0 5.0 0.00 0.01 0.01 83 1012.6
20260903173241 82 72 0.0 6.0 0.00 0.01 0.01 84 1012.8
20260903172736 81 132 4.0 5.0 0.00 0.01 0.01 84 1012.6
20260903172231 81 117 3.0 6.0 0.00 0.01 0.01 85 1012.8
20260903171726 81 75 2.0 2.0 0.00 0.01 0.01 85 1013.2
20260903171222 81 79 2.0 5.0 0.00 0.01 0.01 85 1013.1
20260903170720 81 99 1.0 6.0 0.00 0.01 0.01 86 1013.1
20260903170216 81 104 3.0 6.0 0.00 0.01 0.01 85 1013.0
20260903165714 82 81 2.0 6.0 0.00 0.01 0.01 84 1013.1
20260903165209 82 70 0.0 5.0 0.00 0.01 0.01 85 1013.1
20260903164703 83 109 1.0 7.0 0.00 0.01 0.01 84 1012.7
20260903164200 83 77 1.0 3.0 0.00 0.01 0.01 83 1012.8
20260903163659 83 94 0.0 1.0 0.00 0.01 0.01 82 1013.1
20260903163156 83 65 3.0 5.0 0.00 0.01 0.01 82 1012.8
20260903162651 82 138 3.0 6.0 0.00 0.01 0.01 84 1012.8
20260903162147 82 109 3.0 7.0 0.00 0.01 0.01 85 1012.6
20260903161643 82 119 3.0 7.0 0.00 0.01 0.01 85 1012.6
20260903161138 82 79 3.0 3.0 0.00 0.01 0.01 85 1012.7
20260903160633 82 75 1.0 2.0 0.00 0.01 0.01 85 1012.7
20260903160127 82 80 1.0 3.0 0.00 0.01 0.01 84 1012.5
20260903155626 82 99 2.0 7.0 0.00 0.01 0.01 84 1012.6
20260903155121 82 91 0.0 2.0 0.00 0.01 0.01 85 1012.6
20260903154617 82 78 1.0 3.0 0.00 0.01 0.01 84 1012.4
20260903154114 82 104 1.0 3.0 0.00 0.01 0.01 85 1012.5
20260903153609 82 79 1.0 2.0 0.00 0.01 0.01 85 1012.5
20260903153104 81 72 0.0 2.0 0.00 0.01 0.01 87 1012.4
20260903152600 81 74 0.0 2.0 0.00 0.01 0.01 87 1012.6
20260903152056 81 76 0.0 1.0 0.00 0.01 0.01 88 1012.4
20260903151555 80 103 3.0 5.0 0.00 0.01 0.01 87 1012.7
20260903151051 81 89 2.0 7.0 0.00 0.01 0.01 88 1012.6
20260903150544 80 118 0.0 2.0 0.00 0.01 0.01 88 1012.4
20260903150040 80 62 1.0 8.0 0.00 0.01 0.01 88 1012.5
20260903145540 80 84 4.0 6.0 0.00 0.01 0.01 88 1012.4
20260903145035 80 106 2.0 3.0 0.00 0.01 0.01 90 1012.4
20260903144534 80 76 0.0 3.0 0.00 0.01 0.01 91 1012.5
20260903144030 79 79 0.0 1.0 0.00 0.01 0.01 92 1012.7
20260903143526 78 73 1.0 6.0 0.00 0.01 0.01 92 1012.5
20260903143022 78 80 1.0 2.0 0.00 0.01 0.01 92 1012.6
20260903142517 78 74 1.0 3.0 0.00 0.01 0.01 93 1012.6
20260903142014 78 63 1.0 2.0 0.00 0.01 0.01 93 1012.8
20260903141509 78 75 0.0 2.0 0.00 0.01 0.01 93 1012.8
20260903141004 78 81 1.0 2.0 0.00 0.01 0.01 94 1012.8
20260903140459 77 89 0.0 1.0 0.00 0.01 0.01 94 1012.8
20260903135954 77 82 2.0 3.0 0.00 0.01 0.01 94 1012.7
20260903135450 77 113 3.0 5.0 0.00 0.01 0.01 94 1012.7
20260903134945 77 77 0.0 1.0 0.00 0.01 0.01 94 1013.0
20260903134444 77 68 3.0 5.0 0.00 0.01 0.01 95 1012.7
20260903133941 77 84 0.0 1.0 0.00 0.01 0.01 95 1012.7
20260903133438 77 121 1.0 3.0 0.00 0.01 0.01 95 1012.6
20260903132933 77 76 1.0 1.0 0.00 0.01 0.01 95 1012.5
20260903132428 77 87 1.0 1.0 0.00 0.01 0.01 96 1012.3
20260903131927 76 77 1.0 2.0 0.00 0.01 0.01 96 1012.4
20260903131423 76 71 0.0 3.0 0.00 0.01 0.01 96 1012.5
20260903130922 76 109 0.0 1.0 0.00 0.01 0.01 96 1012.6
20260903130417 76 71 0.0 1.0 0.00 0.01 0.01 96 1012.4
20260903125916 76 86 0.0 1.0 0.00 0.01 0.01 96 1012.3
20260903125410 76 104 0.0 2.0 0.00 0.01 0.01 96 1012.2
20260903124910 76 83 0.0 2.0 0.00 0.01 0.01 96 1012.4
20260903124405 76 74 0.0 0.0 0.00 0.01 0.01 96 1012.3
20260903123904 76 104 0.0 2.0 0.00 0.01 0.01 96 1012.4
20260903123359 76 91 0.0 0.0 0.00 0.01 0.01 96 1012.2
20260903122857 76 91 1.0 1.0 0.00 0.01 0.01 96 1012.2
20260903122352 76 78 0.0 0.0 0.00 0.01 0.01 96 1012.2
20260903121851 76 81 0.0 0.0 0.00 0.01 0.01 96 1011.9
20260903121346 76 62 0.0 1.0 0.00 0.01 0.01 96 1012.2
20260903120842 76 76 0.0 1.0 0.00 0.01 0.01 96 1011.9
20260903120340 76 93 0.0 1.0 0.00 0.01 0.01 96 1012.0
20260903115833 76 79 1.0 2.0 0.00 0.01 0.01 96 1012.0
20260903115329 76 82 0.0 1.0 0.00 0.01 0.01 96 1012.1
20260903114828 76 71 0.0 0.0 0.00 0.01 0.01 96 1011.9
20260903114325 76 74 1.0 1.0 0.00 0.01 0.01 96 1011.9
20260903113825 76 87 1.0 2.0 0.00 0.01 0.01 96 1012.0
20260903113315 76 74 0.0 2.0 0.00 0.01 0.01 96 1011.9
20260903112811 75 74 0.0 1.0 0.00 0.01 0.01 96 1011.7
20260903112307 75 71 0.0 2.0 0.00 0.01 0.01 96 1011.7
20260903111805 75 74 0.0 1.0 0.00 0.01 0.01 96 1011.8
20260903111300 75 77 2.0 5.0 0.00 0.01 0.01 96 1011.8
20260903110756 75 109 1.0 1.0 0.00 0.01 0.01 96 1012.0
20260903110252 75 73 0.0 0.0 0.00 0.01 0.01 96 1012.0
20260903105751 75 74 0.0 0.0 0.00 0.01 0.01 96 1011.8
20260903105247 75 112 1.0 1.0 0.00 0.01 0.01 96 1011.7
20260903104746 76 73 0.0 1.0 0.00 0.01 0.01 96 1011.5
20260903104242 76 71 0.0 1.0 0.00 0.01 0.01 96 1011.7
20260903103737 76 67 0.0 1.0 0.00 0.01 0.01 96 1011.6
20260903103233 76 124 0.0 1.0 0.00 0.01 0.01 96 1011.5
20260903102728 76 77 1.0 2.0 0.00 0.01 0.01 96 1011.4
20260903102223 76 76 0.0 1.0 0.00 0.01 0.01 96 1011.5
20260903101721 76 111 1.0 1.0 0.00 0.01 0.01 95 1011.4
20260903101218 76 72 0.0 0.0 0.00 0.01 0.01 95 1011.3
20260903100717 76 73 0.0 0.0 0.00 0.01 0.01 95 1011.3
20260903100212 76 82 0.0 0.0 0.00 0.01 0.01 95 1011.1
20260903095709 76 87 0.0 0.0 0.00 0.01 0.01 95 1011.3
20260903095204 76 75 0.0 1.0 0.00 0.01 0.01 95 1011.3
20260903094659 76 80 0.0 1.0 0.00 0.01 0.01 95 1011.3
20260903094154 76 79 0.0 1.0 0.00 0.01 0.01 95 1011.3
20260903093649 76 77 0.0 2.0 0.00 0.01 0.01 95 1011.4
20260903093145 76 71 0.0 0.0 0.00 0.01 0.01 94 1011.3
20260903092639 76 79 0.0 2.0 0.07 0.01 0.01 94 1011.4
20260903092133 76 69 0.0 0.0 0.07 0.01 0.01 94 1011.5
20260903091632 76 77 0.0 1.0 0.00 0.00 0.00 94 1011.6
20260903091126 76 69 0.0 2.0 0.00 0.00 0.00 93 1011.6
20260903090622 76 75 0.0 1.0 0.00 0.00 0.00 93 1011.5
20260903090121 76 85 1.0 1.0 0.00 0.00 0.00 93 1011.3
20260903085620 76 69 0.0 1.0 0.00 0.00 0.00 93 1011.5
20260903085116 76 66 1.0 2.0 0.00 0.00 0.00 92 1011.6
20260903084613 77 83 0.0 2.0 0.00 0.00 0.00 92 1011.4
20260903084108 77 89 1.0 2.0 0.00 0.00 0.00 91 1011.6
20260903083604 77 80 1.0 6.0 0.00 0.00 0.00 90 1011.5
20260903083103 77 97 3.0 6.0 0.00 0.00 0.00 89 1011.4
20260903082558 78 77 1.0 3.0 0.00 0.00 0.00 88 1011.4
20260903082054 78 112 1.0 2.0 0.00 0.00 0.00 87 1011.5
20260903081549 78 68 2.0 3.0 0.00 0.00 0.00 86 1011.1
20260903081045 78 72 0.0 3.0 0.00 0.00 0.00 86 1011.3
20260903080541 78 75 0.0 3.0 0.00 0.00 0.00 86 1011.4
20260903080038 78 98 1.0 1.0 0.00 0.00 0.00 85 1011.4
20260903075532 78 117 2.0 2.0 0.00 0.00 0.00 85 1011.2
20260903075027 78 76 0.0 6.0 0.00 0.00 0.00 84 1011.3
20260903074526 79 79 1.0 6.0 0.00 0.00 0.00 84 1011.3
20260903074021 79 46 3.0 5.0 0.00 0.00 0.00 83 1011.4
20260903073517 79 115 1.0 3.0 0.00 0.00 0.00 82 1011.1
20260903073013 79 101 2.0 6.0 0.00 0.00 0.00 82 1011.2
20260903072508 79 153 4.0 6.0 0.00 0.00 0.00 82 1011.3
20260903072005 80 82 1.0 5.0 0.00 0.00 0.00 81 1011.6
20260903071501 80 88 3.0 6.0 0.00 0.00 0.00 81 1011.5
20260903070956 80 122 3.0 6.0 0.00 0.00 0.00 80 1011.4
20260903070455 80 86 3.0 3.0 0.00 0.00 0.00 80 1011.5
20260903065956 80 94 3.0 5.0 0.00 0.00 0.00 79 1011.4
20260903065451 80 73 1.0 5.0 0.00 0.00 0.00 79 1011.4
20260903064950 80 86 1.0 6.0 0.00 0.00 0.00 79 1011.4
20260903064445 80 89 1.0 5.0 0.00 0.00 0.00 79 1011.8
20260903063941 80 72 0.0 3.0 0.00 0.00 0.00 79 1011.3
20260903063435 80 72 1.0 2.0 0.00 0.00 0.00 79 1011.5
20260903062926 80 54 2.0 5.0 0.00 0.00 0.00 79 1011.5
20260903062425 80 77 0.0 3.0 0.00 0.00 0.00 79 1011.4
20260903061921 80 45 1.0 3.0 0.00 0.00 0.00 79 1011.6
20260903061421 80 80 1.0 5.0 0.00 0.00 0.00 79 1011.5
20260903060916 80 78 4.0 6.0 0.00 0.00 0.00 78 1011.7
20260903060416 80 76 4.0 5.0 0.00 0.00 0.00 78 1011.7
20260903055914 80 96 2.0 5.0 0.00 0.00 0.00 78 1011.9
20260903055413 80 55 1.0 3.0 0.00 0.00 0.00 78 1011.7
20260903054907 80 19 3.0 3.0 0.00 0.00 0.00 77 1011.8
20260903054402 80 67 2.0 2.0 0.00 0.00 0.00 77 1012.2
20260903053858 80 81 3.0 5.0 0.00 0.00 0.00 77 1012.1
20260903053353 81 76 3.0 3.0 0.00 0.00 0.00 76 1012.1
20260903052849 81 70 4.0 6.0 0.00 0.00 0.00 76 1012.1
20260903052344 81 87 1.0 3.0 0.00 0.00 0.00 76 1011.9
20260903051840 81 115 1.0 5.0 0.00 0.00 0.00 76 1012.2
20260903051335 81 88 2.0 5.0 0.00 0.00 0.00 74 1012.3
20260903050831 81 51 2.0 7.0 0.00 0.00 0.00 74 1012.1
20260903050330 81 70 2.0 5.0 0.00 0.00 0.00 74 1012.3
20260903045825 82 82 3.0 6.0 0.00 0.00 0.00 74 1012.3
20260903045320 82 81 6.0 7.0 0.00 0.00 0.00 72 1012.4
20260903044817 82 116 2.0 6.0 0.00 0.00 0.00 71 1012.2
20260903044312 82 103 2.0 5.0 0.00 0.00 0.00 71 1012.1
20260903043809 83 105 2.0 6.0 0.00 0.00 0.00 71 1012.2
20260903043308 83 70 1.0 2.0 0.00 0.00 0.00 70 1012.1
20260903042807 83 83 4.0 5.0 0.00 0.00 0.00 69 1012.1
20260903042306 84 92 0.0 6.0 0.00 0.00 0.00 68 1011.9
20260903041758 84 66 2.0 3.0 0.00 0.00 0.00 67 1012.1
20260903041249 84 128 2.0 6.0 0.00 0.00 0.00 68 1012.2
20260903040748 84 41 5.0 7.0 0.00 0.00 0.00 67 1012.3
20260903040243 84 102 3.0 6.0 0.00 0.00 0.00 67 1012.5
20260903035739 84 87 2.0 6.0 0.00 0.00 0.00 67 1012.4
20260903035235 84 91 3.0 8.0 0.00 0.00 0.00 66 1012.1
20260903034735 84 126 1.0 3.0 0.00 0.00 0.00 66 1012.2
20260903034230 85 71 1.0 6.0 0.00 0.00 0.00 66 1012.2
20260903033725 85 99 3.0 5.0 0.00 0.00 0.00 65 1012.2
20260903033220 85 95 3.0 3.0 0.00 0.00 0.00 65 1012.1
20260903032714 85 77 1.0 2.0 0.00 0.00 0.00 65 1012.1
20260903032211 86 96 1.0 3.0 0.00 0.00 0.00 64 1012.0
20260903031706 86 78 2.0 3.0 0.00 0.00 0.00 63 1012.2
20260903031205 86 88 1.0 5.0 0.00 0.00 0.00 64 1012.2
20260903030702 86 68 1.0 5.0 0.00 0.00 0.00 63 1012.0
20260903030157 86 75 1.0 3.0 0.00 0.00 0.00 63 1012.0
20260903025652 87 87 0.0 6.0 0.00 0.00 0.00 62 1011.9
20260903025148 87 103 5.0 7.0 0.00 0.00 0.00 61 1011.8
20260903024642 87 77 5.0 7.0 0.00 0.00 0.00 62 1011.9
20260903024142 88 329 3.0 5.0 0.00 0.00 0.00 61 1011.9
20260903023638 88 88 1.0 3.0 0.00 0.00 0.00 60 1011.8
20260903023138 89 108 1.0 7.0 0.00 0.00 0.00 59 1011.6
20260903022632 89 48 4.0 6.0 0.00 0.00 0.00 58 1011.6
20260903022131 89 59 1.0 2.0 0.00 0.00 0.00 58 1011.4
20260903021626 89 88 2.0 7.0 0.00 0.00 0.00 57 1011.3
20260903021120 90 81 2.0 3.0 0.00 0.00 0.00 56 1011.4
20260903020616 90 70 1.0 6.0 0.00 0.00 0.00 56 1011.4
20260903020116 90 57 3.0 5.0 0.00 0.00 0.00 55 1011.0
20260903015612 90 44 4.0 6.0 0.00 0.00 0.00 55 1011.2
20260903015107 91 71 1.0 3.0 0.00 0.00 0.00 55 1011.0
20260903014606 91 58 0.0 3.0 0.00 0.00 0.00 55 1010.9
20260903014101 90 68 2.0 5.0 0.00 0.00 0.00 55 1011.0
20260903013555 91 79 1.0 2.0 0.00 0.00 0.00 54 1010.7
20260903013049 91 78 0.0 3.0 0.00 0.00 0.00 54 1010.7
20260903012549 91 81 1.0 5.0 0.00 0.00 0.00 54 1010.7
20260903012043 91 99 1.0 3.0 0.00 0.00 0.00 54 1010.6
20260903011537 91 88 2.0 3.0 0.00 0.00 0.00 53 1010.8
20260903011032 92 81 2.0 3.0 0.00 0.00 0.00 53 1010.7
20260903010527 92 87 0.0 3.0 0.00 0.00 0.00 53 1010.5
20260903010025 92 75 2.0 3.0 0.00 0.00 0.00 53 1010.7
20260903005521 92 71 2.0 3.0 0.00 0.00 0.00 53 1010.3
20260903005016 92 78 0.0 3.0 0.00 0.00 0.00 52 1010.4
20260903004516 93 98 1.0 5.0 0.00 0.00 0.00 52 1010.4
20260903004011 93 71 2.0 5.0 0.00 0.00 0.00 51 1010.4
20260903003506 93 76 0.0 6.0 0.00 0.00 0.00 51 1010.5
20260903003002 93 93 2.0 3.0 0.00 0.00 0.00 51 1010.5
20260903002501 93 97 2.0 6.0 0.00 0.00 0.00 51 1010.3
20260903002001 93 76 1.0 5.0 0.00 0.00 0.00 51 1010.4
20260903001456 93 57 3.0 5.0 0.00 0.00 0.00 51 1010.1
20260903000950 94 82 3.0 5.0 0.00 0.00 0.00 51 1010.2
20260903000447 94 71 2.0 5.0 0.00 0.00 0.00 50 1010.1
20260902235943 94 80 1.0 3.0 0.00 0.00 0.00 51 1010.3
20260902235438 94 81 2.0 5.0 0.00 0.00 0.00 50 1010.4
20260902234932 94 121 2.0 6.0 0.00 0.00 0.00 50 1010.3
20260902234428 94 91 0.0 3.0 0.00 0.00 0.00 50 1010.3
20260902233927 95 64 4.0 6.0 0.00 0.00 0.00 48 1010.1
20260902233421 95 139 4.0 7.0 0.00 0.00 0.00 48 1010.1
20260902232920 96 77 1.0 5.0 0.00 0.00 0.00 47 1010.1
20260902232415 98 99 1.0 7.0 0.00 0.00 0.00 45 1010.2
20260902231915 98 144 3.0 5.0 0.00 0.00 0.00 43 1010.0
20260902231410 99 73 3.0 7.0 0.00 0.00 0.00 42 1010.0
20260902230905 99 101 3.0 6.0 0.00 0.00 0.00 42 1010.2
20260902230405 100 81 1.0 2.0 0.00 0.00 0.00 40 1010.1
20260902225904 101 83 0.0 1.0 0.00 0.00 0.00 41 1009.8
20260902225359 100 72 2.0 3.0 0.00 0.00 0.00 41 1010.0
20260902224857 100 84 0.0 3.0 0.00 0.00 0.00 42 1009.9
20260902224352 100 104 3.0 5.0 0.00 0.00 0.00 41 1010.0
20260902223849 99 70 0.0 2.0 0.00 0.00 0.00 42 1010.0
20260902223348 98 77 0.0 1.0 0.00 0.00 0.00 43 1010.0
20260902222843 99 78 0.0 2.0 0.00 0.00 0.00 42 1010.0
20260902222342 100 93 1.0 2.0 0.00 0.00 0.00 40 1010.1
20260902221837 102 237 1.0 2.0 0.00 0.00 0.00 39 1010.0
20260902221336 101 45 3.0 3.0 0.00 0.00 0.00 39 1010.0
20260902220831 100 71 1.0 3.0 0.00 0.00 0.00 40 1009.9
20260902220331 101 103 0.0 5.0 0.00 0.00 0.00 38 1010.2
20260902215826 102 84 3.0 6.0 0.00 0.00 0.00 38 1010.3
20260902215321 102 95 1.0 1.0 0.00 0.00 0.00 38 1010.0
20260902214817 101 39 0.0 2.0 0.00 0.00 0.00 39 1010.2
20260902214316 102 42 1.0 6.0 0.00 0.00 0.00 37 1010.4
20260902213811 102 82 0.0 3.0 0.00 0.00 0.00 37 1010.4
20260902213306 102 72 1.0 2.0 0.00 0.00 0.00 38 1010.5
20260902212805 102 128 0.0 1.0 0.00 0.00 0.00 39 1010.4
20260902212305 101 56 1.0 2.0 0.00 0.00 0.00 38 1010.3
20260902211758 101 66 0.0 2.0 0.00 0.00 0.00 39 1010.4
20260902211253 100 95 3.0 5.0 0.00 0.00 0.00 40 1010.7
20260902210748 101 169 1.0 2.0 0.00 0.00 0.00 40 1010.6
20260902210243 100 75 0.0 7.0 0.00 0.00 0.00 40 1010.7
20260902205741 101 75 2.0 6.0 0.00 0.00 0.00 40 1010.7
20260902205236 101 59 1.0 1.0 0.00 0.00 0.00 39 1011.0
20260902204731 100 75 0.0 3.0 0.00 0.00 0.00 41 1010.9
20260902204226 99 85 1.0 2.0 0.00 0.00 0.00 41 1011.1
20260902203716 99 103 1.0 5.0 0.00 0.00 0.00 42 1011.2
20260902203216 100 91 1.0 1.0 0.00 0.00 0.00 41 1011.1
20260902202710 100 93 0.0 5.0 0.00 0.00 0.00 42 1011.3
20260902202207 100 44 1.0 2.0 0.00 0.00 0.00 42 1011.4
20260902201703 100 106 0.0 2.0 0.00 0.00 0.00 41 1011.4
20260902201203 99 52 1.0 1.0 0.00 0.00 0.00 43 1011.4
20260902200657 100 77 0.0 2.0 0.00 0.00 0.00 43 1011.7
20260902200154 100 53 5.0 6.0 0.00 0.00 0.00 42 1011.6
20260902195649 101 40 2.0 5.0 0.00 0.00 0.00 41 1011.9
20260902195148 100 56 1.0 2.0 0.00 0.00 0.00 41 1012.0
20260902194647 100 71 1.0 1.0 0.00 0.00 0.00 41 1012.1
20260902194142 99 62 1.0 5.0 0.00 0.00 0.00 42 1012.1
20260902193639 100 17 1.0 2.0 0.00 0.00 0.00 42 1012.1
20260902193139 99 43 1.0 2.0 0.00 0.00 0.00 44 1012.2
20260902192637 98 135 2.0 6.0 0.00 0.00 0.00 45 1012.3
20260902192137 99 102 0.0 1.0 0.00 0.00 0.00 42 1012.2
20260902191631 99 83 2.0 2.0 0.00 0.00 0.00 43 1012.5
20260902191125 98 75 0.0 3.0 0.00 0.00 0.00 44 1012.5
20260902190621 98 73 0.0 1.0 0.00 0.00 0.00 45 1012.5
20260902190116 97 60 1.0 2.0 0.00 0.00 0.00 46 1012.6
20260902185612 97 65 2.0 5.0 0.00 0.00 0.00 46 1013.1
20260902185108 98 98 2.0 5.0 0.00 0.00 0.00 45 1012.8
20260902184603 98 63 0.0 2.0 0.00 0.00 0.00 46 1013.0